This is the latest recevied weather packets stored in our database for station/object PD2BVG. If no packets are shown the sender has not sent any weather packets the latest 10 day(s).
| Time | Temp. | Humidity | Pressure | Rain* | Wind** | Luminosity | Snow |
|---|---|---|---|---|---|---|---|
| 1787900213 | 17.78° C | 100% | 1007.6 hPa | 0 mm | - | 88 W/m² | - |
| 1787900153 | 17.78° C | 100% | 1007.7 hPa | 0 mm | - | 113 W/m² | - |
| 1787900092 | 17.78° C | 100% | 1007.7 hPa | 0 mm | - | 113 W/m² | - |
| 1787900033 | 17.78° C | 100% | 1007.7 hPa | 0 mm | - | 113 W/m² | - |
| 1787899973 | 17.78° C | 100% | 1007.7 hPa | 0 mm | - | 192 W/m² | - |
| 1787899913 | 17.78° C | 100% | 1007.8 hPa | 0 mm | - | 192 W/m² | - |
| 1787899853 | 17.78° C | 100% | 1007.7 hPa | 0 mm | - | 201 W/m² | - |
| 1787899793 | 17.78° C | 100% | 1007.8 hPa | 0 mm | - | 201 W/m² | - |
| 1787899735 | 17.78° C | 100% | 1007.7 hPa | 0 mm | - | 201 W/m² | - |
| 1787899675 | 17.78° C | 100% | 1007.7 hPa | 0 mm | - | 194 W/m² | - |
| 1787899616 | 17.22° C | 100% | 1007.8 hPa | 0 mm | - | 194 W/m² | - |
| 1787899553 | 17.22° C | 100% | 1007.8 hPa | 0 mm | - | 194 W/m² | - |
| 1787899494 | 17.22° C | 100% | 1007.8 hPa | 0 mm | - | 190 W/m² | - |
| 1787899433 | 17.22° C | 100% | 1007.8 hPa | 0 mm | - | 190 W/m² | - |
| 1787899374 | 17.22° C | 100% | 1007.8 hPa | 0 mm | - | 39 W/m² | - |
| 1787899312 | 17.22° C | 100% | 1007.6 hPa | 0 mm | - | 41 W/m² | - |
| 1787899252 | 17.22° C | 100% | 1007.6 hPa | 0 mm | - | 41 W/m² | - |
| 1787899193 | 17.22° C | 100% | 1007.8 hPa | 0 mm | - | 41 W/m² | - |
| 1787899133 | 17.22° C | 100% | 1007.8 hPa | 0 mm | - | 41 W/m² | - |
| 1787899073 | 17.22° C | 100% | 1007.9 hPa | 0 mm | - | 42 W/m² | - |
| 1787899013 | 17.22° C | 100% | 1007.8 hPa | 0 mm | - | 42 W/m² | - |
| 1787898953 | 17.22° C | 100% | 1007.8 hPa | 0 mm | - | 44 W/m² | - |
| 1787898895 | 17.22° C | 100% | 1007.7 hPa | 0 mm | - | 46 W/m² | - |
| 1787898836 | 17.22° C | 100% | 1007.8 hPa | 0 mm | - | 48 W/m² | - |
| 1787898776 | 17.22° C | 100% | 1007.8 hPa | 0 mm | - | 49 W/m² | - |
* Rain latest hour (hover to see other rain measurements)
** Current wind speed in m/s (hover to see current wind gust speed)